Location: Artiguedieu
(43.5000°N, 0.5454°E)
Time: 20:01:56
(UTC+00:00)

Explorer 7 - Pass Details

Date: 09 August 2021
Orbit: 484 x 676 km, 50.3° (Epoch: 18 September)

Event Time Altitude Azimuth Distance (km) Brightness Sun altitude
Rises 09:09:59 0° 285° (WNW) 2,660 9.9 44.0°
Reaches altitude 10° 09:13:00 10° 260° (W) 1,806 9.2 44.5°
Maximum altitude 09:15:15 14° 227° (SW) 1,572 9.1 44.9°
Drops below altitude 10° 09:17:33 10° 194° (SSW) 1,864 9.7 45.2°
Sets 09:20:45 0° 170° (S) 2,807 10.8 45.8°
